Regional Weather Roundup
Issued by NWS

Home | Current Version | Previous Version | Text Only | Print | Product List | Glossary On
Versions: 1 2 3 4 5 6 7 8 9 10 11 12 13 14 15 16 17 18 19 20 21 22 23 24 25 26 27 28 29 30 31 32 33 34 35 36 37 38 39 40 41 42 43 44 45 46 47 48 49 50
000
ASUS43 KDMX 261701
RWRIA

WEATHER ROUNDUP FOR IOWA
NATIONAL WEATHER SERVICE DES MOINES IA
1200 PM CDT WED APR 26 2017

NOTE: "FAIR" INDICATES FEW OR NO CLOUDS BELOW 12,000 FEET WITH NO
SIGNIFICANT WEATHER AND/OR OBSTRUCTIONS TO VISIBILITY.

* - THESE STATIONS ARE NOT NWS STATIONS...THUS NOT UNDER NWS
QUALITY CONTROL.  THEY ALSO DO NOT REPORT WEATHER SUCH
AS PRECIPITATION OR FOG.

IAZ001>003-012>014-020>022-031>034-043>046-261800-
   NORTHWEST IOWA

CITY           SKY/WX    TMP DP  RH WIND       PRES   REMARKS
CARROLL *      CLOUDY    41  39  93 NW18G25   29.61F
CHEROKEE *     CLOUDY    38  36  92 NW10G20   29.65R WCI  31
DENISON *      CLOUDY    37  36  93 NW15G22   29.66F WCI  28
LE MARS *      CLOUDY    36  34  93 NW16G26   29.68R WCI  26
ORANGE CITY *  CLOUDY    36  34  93 NW16G23   29.65R WCI  26
SHELDON *      CLOUDY    36  34  93 NW18      29.62R WCI  25
SIOUX CITY     CLOUDY    38  32  79 NW21G30   29.68R WCI  28
SPENCER        CLOUDY    39  35  86 NW20      29.61R WCI  29
STORM LAKE *     N/A     37  36  93 NW17      29.64R WCI  28
$$

IAZ055>058-069>071-079>083-090>094-261800-
   SOUTHWEST IOWA

CITY           SKY/WX    TMP DP  RH WIND       PRES   REMARKS
ATLANTIC *     CLOUDY    39  36  87 NW15      29.65R WCI  31
AUDUBON *      CLOUDY    39  36  87 W8G16     29.64F WCI  34
CLARINDA *     CLOUDY    43  36  75 NW20G25   29.67S
COUNCIL BLFS *   N/A     39  37  93 NW13G23   29.68R WCI  32
CRESTON *      CLOUDY    45  37  76 NW22      29.62R
HARLAN  *      CLOUDY    39  37  93 NW20      29.69R WCI  30
LAMONI         CLOUDY    44  39  82 NW15      29.60R
RED OAK *      CLOUDY    43  36  75 NW14G22   29.67R
SHENANDOAH *   CLOUDY    43  36  75 NW15      29.68R
$$

IAZ047>049-059>061-072>074-084-261800-
   CENTRAL IOWA

CITY           SKY/WX    TMP DP  RH WIND       PRES   REMARKS
AMES           CLOUDY    48  40  73 NW20G26   29.55F
ANKENY *       CLOUDY    46  39  76 NW14G23   29.58R
BOONE *        CLOUDY    46  41  81 NW20G26   29.55F
CHARITON *     CLOUDY    45  41  87 NW13G20   29.58R
DES MOINES     CLOUDY    48  39  71 NW16G25   29.58R
GRINNELL*      CLOUDY    46  42  87 NW18G28   29.54R
KNOXVILLE *    CLOUDY    45  39  81 NW16      29.57R
MARSHALLTOWN   CLOUDY    46  42  86 W21       29.51F
NEWTON *       CLOUDY    45  41  87 W18G24    29.54R
PELLA *        CLOUDY    45  41  87 W12       29.58R
PERRY *        CLOUDY    48  38  68 NW20G25   29.58F
$$

IAZ004>006-015-016-023>025-035-036-261800-
   NORTH CENTRAL IOWA

CITY           SKY/WX    TMP DP  RH WIND       PRES   REMARKS
ALGONA *       CLOUDY    41  37  87 NW15G24   29.58R
CLARION *      CLOUDY    43  43 100 NW18      29.56R
ESTHERVILLE    CLOUDY    38  36  92 N17       29.57S WCI  28
FORT DODGE *   CLOUDY    43  36  75 NW12      29.59R
MASON CITY     CLOUDY    42  38  85 NW18      29.53R
FOREST CITY *  CLOUDY    37  37 100 NW10G23   29.54R WCI  30
WEBSTER CITY * CLOUDY    45  39  81 NW22      29.54F
IOWA FALLS *   CLOUDY    45  40  82 NW21      29.54F
$$

IAZ007>011-017>019-026>030-037>042-050>054-066-261800-
   NORTHEAST IOWA

CITY           SKY/WX    TMP DP  RH WIND       PRES   REMARKS
CEDAR RAPIDS   CLOUDY    48  47  96 W17       29.50R
CHARLES CITY * CLOUDY    45  45 100 NW17      29.50R
CLINTON *      CLOUDY    57  54  89 W16       29.49R
DECORAH *      CLOUDY    50  48  93 VRB7G15   29.44R FOG
DUBUQUE        CLOUDY    53  51  93 W15       29.45S
MONTICELLO *   CLOUDY    52  48  87 W12G18    29.46S
OELWEIN *      CLOUDY    46  46 100 W18G24    29.48R
WATERLOO       CLOUDY    46  42  86 W14       29.49S
$$

IAZ064-065-067-068-078-261800-
   EAST CENTRAL IOWA

CITY           SKY/WX    TMP DP  RH WIND       PRES   REMARKS
DAVENPORT      CLOUDY    54  51  90 W18       29.51R
IOWA CITY      CLOUDY    50  45  83 W12       29.53R
MUSCATINE *    CLOUDY    52  46  82 W13       29.54R
QUAD CITIES    CLOUDY    56  51  84 W12       29.50R
$$

IAZ062-063-075>077-085>089-095>099-261800-
   SOUTHEAST IOWA

CITY           SKY/WX    TMP DP  RH WIND       PRES   REMARKS
BURLINGTON     CLOUDY    52  49  89 W9        29.54R
FAIRFIELD *    CLOUDY    46  43  87 W15       29.56R
FORT MADISON * CLOUDY    52  48  87 NW10      29.56R
KEOKUK *       CLOUDY    52  48  87 NW9       29.57R
OSKALOOSA *    CLOUDY    45  41  88 W15G23    29.57R
CENTERVILLE *  CLOUDY    45  41  87 W13       29.60R
OTTUMWA        CLOUDY    46  43  89 W8        29.57R
WASHINGTON *   CLOUDY    48  45  87 W15       29.56R
$$

ABBREVIATIONS USED IN REMARKS
   TC - TEMPERATURES IN CELSIUS
  WCI - WIND CHILL INDEX
   HX - HEAT INDEX
  VSB - VISIBILITY
$$





USA.gov is the U.S. government's official web portal to all federal, state and local government web resources and services.